Weather History for Mammoth, CA

Change the Weather History Date:

Wednesday, August 28, 2013

  Actual Average Record
Temperature  
Mean Temperature 60 °F -  
Max Temperature 80 °F 73 °F 89 °F (2001)
Min Temperature 41 °F 57 °F 30 °F (2012)
Degree Days  
Heating Degree Days 4    
Growing Degree Days 10 (Base 50)    
Moisture  
Dew Point 38 °F    
Average Humidity 49    
Maximum Humidity 93    
Minimum Humidity 15    
Precipitation  
Precipitation 0.00 in - - ()
Sea Level Pressure  
Sea Level Pressure 30.21 in    
Wind  
Wind Speed 4 mph (SSW)    
Max Wind Speed 22 mph    
Max Gust Speed 31 mph    
Visibility 10 miles    
Events      
Averages and records for this station are not official NWS values.
T = Trace of Precipitation, MM = Missing Value Source: NWS Daily Summary

Daily Weather History Graph

Daily Weather History Graph

Search for Another Location

Airport:

Trip Planner

Search our weather history database for the weather conditions in past years. The results will help you decide how hot, cold, wet, or windy it might be!

Date:

Astronomy

Aug. 28, 2013 Rise Set
Actual Time 6:22 AM PDT 7:29 PM PDT
Civil Twilight 5:55 AM PDT 7:56 PM PDT
Nautical Twilight 5:23 AM PDT 8:28 PM PDT
Astronomical Twilight 4:49 AM PDT 9:02 PM PDT
Moon No Moon Rise 2:08 PM PDT (8/28)
Length of Visible Light 14h 01m
Length of Day
13h 07m
Last Quarter, 46% of the Moon is Illuminated
Aug 28
Last Quarter
Sep 5
New
Sep 12
First Quarter
Sep 19
Full
Sep 26
Last Quarter

Hourly Weather History & Observations

Time (PDT) Temp. Windchill Dew Point Humidity Pressure Visibility Wind Dir Wind Speed Gust Speed Precip Events Conditions
12:15 AM 51.8 °F - 42.8 °F 71% 30.19 in 10.0 mi Calm Calm - N/A   Clear
12:35 AM 48.2 °F - 41.0 °F 76% 30.19 in 10.0 mi Calm Calm - N/A   Clear
12:55 AM 48.2 °F - 42.8 °F 82% 30.19 in 10.0 mi Calm Calm - N/A   Clear
1:15 AM 48.2 °F - 41.0 °F 76% 30.19 in 10.0 mi Calm Calm - N/A   Clear
1:35 AM 48.2 °F - 42.8 °F 82% 30.18 in 10.0 mi Calm Calm - N/A   Clear
1:55 AM 48.2 °F - 42.8 °F 82% 30.18 in 10.0 mi Calm Calm - N/A   Clear
2:15 AM 46.4 °F - 39.2 °F 76% 30.18 in 10.0 mi Calm Calm - N/A   Clear
2:35 AM 46.4 °F - 41.0 °F 81% 30.18 in 10.0 mi Calm Calm - N/A   Clear
2:55 AM 46.4 °F - 39.2 °F 76% 30.19 in 10.0 mi Calm Calm - N/A   Clear
3:15 AM 46.4 °F - 39.2 °F 76% 30.18 in 10.0 mi Calm Calm - N/A   Clear
3:35 AM 44.6 °F - 39.2 °F 81% 30.18 in 10.0 mi Calm Calm - N/A   Clear
3:55 AM 42.8 °F 40.1 °F 39.2 °F 87% 30.18 in 10.0 mi NW 4.6 mph - N/A   Clear
4:15 AM 44.6 °F - 41.0 °F 87% 30.18 in 10.0 mi Calm Calm - N/A   Clear
4:35 AM 48.2 °F - 42.8 °F 82% 30.18 in 10.0 mi Calm Calm - N/A   Clear
4:55 AM 42.8 °F 41.1 °F 39.2 °F 87% 30.18 in 10.0 mi NNW 3.5 mph - N/A   Clear
5:15 AM 42.8 °F 41.1 °F 41.0 °F 93% 30.18 in 10.0 mi West 3.5 mph - N/A   Clear
5:35 AM 44.6 °F - 41.0 °F 87% 30.19 in 10.0 mi Calm Calm - N/A   Clear
5:55 AM 42.8 °F - 39.2 °F 87% 30.20 in 10.0 mi Calm Calm - N/A   Clear
6:15 AM 41.0 °F - 39.2 °F 93% 30.20 in 10.0 mi Calm Calm - N/A   Clear
6:35 AM 44.6 °F - 41.0 °F 87% 30.21 in 10.0 mi Calm Calm - N/A   Clear
6:55 AM 41.0 °F - 39.2 °F 93% 30.21 in 10.0 mi Calm Calm - N/A   Clear
7:15 AM 44.6 °F - 42.8 °F 93% 30.22 in 10.0 mi Calm Calm - N/A   Clear
7:35 AM 50.0 °F - 42.8 °F 76% 30.22 in 10.0 mi Calm Calm - N/A   Clear
7:55 AM 53.6 °F - 46.4 °F 77% 30.23 in 10.0 mi Calm Calm - N/A   Clear
8:15 AM 57.2 °F - 46.4 °F 67% 30.23 in 10.0 mi Calm Calm - N/A   Clear
8:35 AM 60.8 °F - 48.2 °F 63% 30.24 in 10.0 mi Calm Calm - N/A   Clear
8:55 AM 62.6 °F - 48.2 °F 59% 30.24 in 10.0 mi SE 4.6 mph - N/A   Clear
9:15 AM 64.4 °F - 48.2 °F 56% 30.24 in 10.0 mi Calm Calm - N/A   Clear
9:35 AM 68.0 °F - 48.2 °F 49% 30.24 in 10.0 mi SE 5.8 mph - N/A   Clear
9:55 AM 68.0 °F - 48.2 °F 49% 30.24 in 10.0 mi SSE 4.6 mph - N/A   Clear
10:15 AM 69.8 °F - 46.4 °F 43% 30.24 in 10.0 mi Calm Calm - N/A   Clear
10:35 AM 71.6 °F - 42.8 °F 35% 30.24 in 10.0 mi ENE 6.9 mph - N/A   Clear
10:55 AM 73.4 °F - 42.8 °F 33% 30.23 in 10.0 mi East 8.1 mph - N/A   Clear
11:15 AM 73.4 °F - 42.8 °F 33% 30.23 in 10.0 mi SE 8.1 mph - N/A   Clear
11:35 AM 73.4 °F - 41.0 °F 31% 30.23 in 10.0 mi ESE 8.1 mph - N/A   Clear
11:55 AM 75.2 °F - 39.2 °F 27% 30.23 in 10.0 mi SE 4.6 mph - N/A   Scattered Clouds
12:15 PM 77.0 °F - 39.2 °F 26% 30.22 in 10.0 mi ESE 9.2 mph - N/A   Scattered Clouds
12:35 PM 77.0 °F - 37.4 °F 24% 30.21 in 10.0 mi NE 5.8 mph - N/A   Mostly Cloudy
12:55 PM 75.2 °F - 37.4 °F 25% 30.21 in 10.0 mi ESE 8.1 mph - N/A   Mostly Cloudy
1:15 PM 80.6 °F - 32.0 °F 17% 30.21 in 10.0 mi East 4.6 mph 19.6 mph N/A   Mostly Cloudy
1:35 PM 80.6 °F - 28.4 °F 15% 30.21 in 10.0 mi SW 21.9 mph 27.6 mph N/A   Mostly Cloudy
1:55 PM 77.0 °F - 30.2 °F 18% 30.21 in 10.0 mi WSW 10.4 mph 28.8 mph N/A   Scattered Clouds
2:15 PM 77.0 °F - 30.2 °F 18% 30.21 in 10.0 mi WSW 8.1 mph 20.7 mph N/A   Scattered Clouds
2:35 PM 75.2 °F - 32.0 °F 21% 30.20 in 10.0 mi SSW 10.4 mph 20.7 mph N/A   Scattered Clouds
2:55 PM 75.2 °F - 32.0 °F 21% 30.20 in 10.0 mi SW 9.2 mph 26.5 mph N/A   Scattered Clouds
3:15 PM 78.8 °F - 32.0 °F 18% 30.20 in 10.0 mi SW 10.4 mph 17.3 mph N/A   Scattered Clouds
3:35 PM 77.0 °F - 32.0 °F 19% 30.20 in 10.0 mi SW 13.8 mph 23.0 mph N/A   Scattered Clouds
3:55 PM 78.8 °F - 32.0 °F 18% 30.19 in 10.0 mi South 13.8 mph 24.2 mph N/A   Clear
4:15 PM 78.8 °F - 32.0 °F 18% 30.19 in 10.0 mi WSW 19.6 mph 26.5 mph N/A   Clear
4:35 PM 78.8 °F - 32.0 °F 18% 30.19 in 10.0 mi WSW 20.7 mph 27.6 mph N/A   Clear
4:55 PM 75.2 °F - 32.0 °F 21% 30.19 in 10.0 mi SW 20.7 mph 28.8 mph N/A   Clear
5:15 PM 77.0 °F - 33.8 °F 21% 30.19 in 10.0 mi WSW 18.4 mph 25.3 mph N/A   Clear
5:35 PM 77.0 °F - 33.8 °F 21% 30.20 in 10.0 mi WSW 15.0 mph 26.5 mph N/A   Clear
5:55 PM 77.0 °F - 30.2 °F 18% 30.20 in 10.0 mi WSW 20.7 mph 26.5 mph N/A   Clear
6:15 PM 75.2 °F - 32.0 °F 21% 30.20 in 10.0 mi West 16.1 mph 24.2 mph N/A   Clear
6:35 PM 75.2 °F - 28.4 °F 18% 30.20 in 10.0 mi SW 15.0 mph 25.3 mph N/A   Clear
6:55 PM 73.4 °F - 30.2 °F 20% 30.20 in 10.0 mi SW 12.7 mph 24.2 mph N/A   Clear
7:15 PM 71.6 °F - 32.0 °F 23% 30.20 in 10.0 mi SSW 11.5 mph 18.4 mph N/A   Clear
7:35 PM 69.8 °F - 32.0 °F 25% 30.20 in 10.0 mi SSW 13.8 mph 21.9 mph N/A   Clear
7:55 PM 71.6 °F - 32.0 °F 23% 30.20 in 7.0 mi SSW 16.1 mph 31.1 mph N/A   Scattered Clouds
8:15 PM 69.8 °F - 32.0 °F 25% 30.21 in 10.0 mi SSW 12.7 mph 24.2 mph N/A   Clear
8:35 PM 66.2 °F - 33.8 °F 30% 30.23 in 10.0 mi Calm Calm - N/A   Clear
8:55 PM 62.6 °F - 33.8 °F 34% 30.24 in 10.0 mi Calm Calm - N/A   Clear
9:15 PM 64.4 °F - 37.4 °F 37% 30.24 in 10.0 mi NW 9.2 mph 19.6 mph N/A   Clear
9:35 PM 62.6 °F - 37.4 °F 39% 30.25 in 10.0 mi East 4.6 mph - N/A   Clear
9:55 PM 60.8 °F - 37.4 °F 42% 30.26 in 10.0 mi ENE 3.5 mph - N/A   Clear
10:15 PM 57.2 °F - 37.4 °F 48% 30.27 in 10.0 mi Calm Calm - N/A   Clear
10:35 PM 59.0 °F - 39.2 °F 48% 30.27 in 10.0 mi ESE 4.6 mph - N/A   Clear
10:55 PM 59.0 °F - 37.4 °F 45% 30.27 in 10.0 mi Calm Calm - N/A   Clear
11:15 PM 55.4 °F - 37.4 °F 51% 30.27 in 10.0 mi NW 6.9 mph - N/A   Clear
11:35 PM 51.8 °F - 35.6 °F 54% 30.27 in 10.0 mi West 5.8 mph - N/A   Clear
11:55 PM 53.6 °F - 37.4 °F 54% 30.28 in 10.0 mi Calm Calm - N/A   Clear